Berlin, NH

11:29 AM EDT on August 22, 2017 (GMT -0400)
Berlin Municipal

Weather History for KBML - January, 2003

Change the Weather History Date:

Wednesday, January 15, 2003

  Actual Average Record
Temperature  
Mean Temperature -5 °F -  
Max Temperature 10 °F 20 °F 44 °F (2014)
Min Temperature -20 °F 0 °F -31 °F (2004)
Degree Days  
Heating Degree Days 70    
Moisture  
Dew Point -12 °F    
Average Humidity 74    
Maximum Humidity 87    
Minimum Humidity 51    
Precipitation  
Precipitation 0.00 in - - ()
Sea Level Pressure  
Sea Level Pressure 30.01 in    
Wind  
Wind Speed 1 mph (WNW)    
Max Wind Speed 8 mph    
Max Gust Speed -    
Visibility 9 miles    
Events Snow    
Averages and records for this station are not official NWS values.
T = Trace of Precipitation, MM = Missing Value Source: NWS Daily Summary

Daily Weather History Graph

Daily Weather History Graph

Search for Another Location

Airport or City:

Trip Planner

Search our weather history database for the weather conditions in past years. The results will help you decide how hot, cold, wet, or windy it might be!

Date:

Astronomy

Jan. 15, 2003 Rise Set
Actual Time 7:18 AM EST 4:30 PM EST
Civil Twilight 6:45 AM EST 5:02 PM EST
Nautical Twilight 6:09 AM EST 5:38 PM EST
Astronomical Twilight 5:34 AM EST 6:13 PM EST
Moon 1:48 PM EST (1/15) 4:58 AM EST (1/15)
Length of Visible Light 10h 17m
Length of Day
9h 12m
Waxing Gibbous, 92% of the Moon is Illuminated
Jan 15
Waxing Gibbous
Jan 18
Full
Jan 25
Last Quarter
Feb 1
New
Feb 9
First Quarter

Hourly Weather History & Observations

Time (EST) Temp. Windchill Dew Point Humidity Pressure Visibility Wind Dir Wind Speed Gust Speed Precip Events Conditions
12:52 AM -17.0 °F - -20.9 °F 82% 30.04 in 10.0 mi Calm Calm - N/A   Clear
1:52 AM -18.9 °F - -24.0 °F 78% 30.04 in 10.0 mi Calm Calm - N/A   Clear
2:52 AM -18.9 °F - -24.0 °F 78% 30.04 in 10.0 mi Calm Calm - N/A   Clear
3:52 AM -20.9 °F - -26.0 °F 77% 30.05 in 10.0 mi Calm Calm - N/A   Clear
4:52 AM -20.0 °F - -25.1 °F 78% 30.05 in 10.0 mi Calm Calm - N/A   Clear
5:52 AM -20.0 °F - -25.1 °F 78% 30.06 in 10.0 mi Calm Calm - N/A   Scattered Clouds
6:39 AM -16.6 °F - -22.0 °F 76% 29.94 in 10.0 mi Calm Calm - N/A   Overcast
6:52 AM -16.1 °F - -20.9 °F 79% 30.06 in 10.0 mi Calm Calm - N/A   Overcast
7:52 AM -13.0 °F - -18.0 °F 78% 30.07 in 10.0 mi Calm Calm - N/A   Overcast
8:43 AM -9.4 °F - -14.8 °F 77% 29.96 in 10.0 mi Calm Calm - N/A   Overcast
8:52 AM -9.0 °F - -14.1 °F 79% 30.08 in 10.0 mi Calm Calm - N/A   Mostly Cloudy
9:00 AM -9.4 °F - -14.8 °F 77% 29.96 in 10.0 mi Calm Calm - N/A   Scattered Clouds
9:52 AM -5.1 °F - -9.9 °F 80% 30.07 in 10.0 mi Calm Calm - N/A   Mostly Cloudy
10:52 AM 5.0 °F -4.1 °F -6.0 °F 61% 30.04 in 10.0 mi Variable 4.6 mph - N/A   Clear
11:52 AM 8.1 °F -3.2 °F -5.1 °F 55% 30.01 in 10.0 mi West 6.9 mph - N/A   Clear
12:52 PM 10.0 °F -1.9 °F -4.0 °F 53% 29.99 in 10.0 mi West 8.1 mph - N/A   Clear
1:52 PM 10.0 °F -0.9 °F -4.0 °F 53% 29.98 in 10.0 mi Variable 6.9 mph - N/A   Clear
2:52 PM 10.9 °F 0.2 °F -4.0 °F 51% 29.98 in 10.0 mi West 6.9 mph - N/A   Clear
3:52 PM 10.9 °F 0.2 °F -4.0 °F 51% 29.99 in 10.0 mi WNW 6.9 mph - N/A   Clear
4:52 PM 9.0 °F 0.6 °F -4.0 °F 56% 30.01 in 10.0 mi NNW 4.6 mph - N/A   Partly Cloudy
5:52 PM 1.0 °F - -5.1 °F 75% 30.03 in 10.0 mi Calm Calm - N/A   Partly Cloudy
6:52 PM -2.0 °F - -7.1 °F 79% 30.04 in 10.0 mi Calm Calm - N/A   Scattered Clouds
7:52 PM -5.1 °F - -8.0 °F 87% 30.04 in 10.0 mi Calm Calm - N/A   Mostly Cloudy
8:52 PM -2.0 °F - -7.1 °F 79% 30.02 in 10.0 mi Calm Calm - N/A   Overcast
9:52 PM -0.0 °F - -5.1 °F 79% 30.01 in 3.0 mi Calm Calm - 0.00 in Snow Light Snow
10:44 PM -0.4 °F - -4.0 °F 85% 29.90 in 3.0 mi Calm Calm - 0.00 in Snow Light Snow
10:52 PM -0.0 °F - -4.0 °F 83% 29.99 in 3.0 mi Calm Calm - 0.00 in Snow Light Snow
11:03 PM -0.4 °F - -4.0 °F 85% 29.90 in 2.5 mi Calm Calm - 0.00 in Snow Light Snow
11:33 PM -2.2 °F - -7.6 °F 78% 29.89 in 3.0 mi Calm Calm - 0.00 in Snow Light Snow
11:52 PM -2.0 °F - -5.1 °F 87% 29.99 in 6.0 mi Calm Calm - 0.00 in   Overcast